,,PressureMeas_1m,,PRMeasQMR101_1,,RHStat155_1m_1,,SRMeasQMS101R_1m,,TAStat155_1m_1,,GenWind_1,,GenWind_1,
2018-04-11, 00:00:06,VALID,916.832,VALID,0.0,VALID,87.105,VALID,-0.024,VALID,21.879,VALID,117.0,VALID,1.4,
2018-04-11, 00:01:06,VALID,916.813,VALID,0.0,VALID,87.421,VALID,-0.023,VALID,21.857,VALID,103.0,VALID,1.211,
2018-04-11, 00:02:06,VALID,916.815,VALID,0.0,VALID,87.573,VALID,-0.006,VALID,21.802,VALID,95.0,VALID,1.348,
2018-04-11, 00:03:06,VALID,916.796,VALID,0.0,VALID,87.787,VALID,-0.016,VALID,21.757,VALID,88.0,VALID,1.477,
2018-04-11, 00:04:06,VALID,916.789,VALID,0.0,VALID,87.895,VALID,-0.01,VALID,21.767,VALID,86.0,VALID,1.432,
2018-04-11, 00:05:06,VALID,916.782,VALID,0.0,VALID,87.808,VALID,0.002,VALID,21.792,VALID,81.0,VALID,1.512,
2018-04-11, 00:06:06,VALID,916.758,VALID,0.0,VALID,87.777,VALID,0.005,VALID,21.805,VALID,72.0,VALID,1.488,
2018-04-11, 00:07:06,VALID,916.759,VALID,0.0,VALID,87.86,VALID,0.002,VALID,21.826,VALID,86.0,VALID,2.446,
2018-04-11, 00:08:06,VALID,916.722,VALID,0.0,VALID,87.151,VALID,0.015,VALID,21.979,VALID,72.0,VALID,2.055,
2018-04-11, 00:09:06,VALID,916.708,VALID,0.0,VALID,86.916,VALID,0.002,VALID,22.034,VALID,71.0,VALID,2.319,
2018-04-11, 00:10:06,VALID,916.682,VALID,0.0,VALID,86.527,VALID,0.004,VALID,22.108,VALID,72.0,VALID,1.832,
2018-04-11, 00:11:06,VALID,916.673,VALID,0.0,VALID,86.381,VALID,0.013,VALID,22.133,VALID,81.0,VALID,2.24,
2018-04-11, 00:12:06,VALID,916.649,VALID,0.0,VALID,86.156,VALID,0.015,VALID,22.195,VALID,74.0,VALID,2.227,
2018-04-11, 00:13:06,VALID,916.641,VALID,0.0,VALID,86.065,VALID,0.02,VALID,22.199,VALID,73.0,VALID,2.045,
2018-04-11, 00:14:06,VALID,916.617,VALID,0.0,VALID,86.205,VALID,0.009,VALID,22.148,VALID,77.0,VALID,1.795,
2018-04-11, 00:15:06,VALID,916.611,VALID,0.0,VALID,86.438,VALID,-0.005,VALID,22.103,VALID,67.0,VALID,1.845,
2018-04-11, 00:16:06,VALID,916.597,VALID,0.0,VALID,86.505,VALID,0.001,VALID,22.082,VALID,62.0,VALID,1.786,
2018-04-11, 00:17:06,VALID,916.577,VALID,0.0,VALID,86.446,VALID,0.002,VALID,22.078,VALID,71.0,VALID,1.664,
2018-04-11, 00:18:06,VALID,916.562,VALID,0.0,VALID,86.364,VALID,-0.008,VALID,22.095,VALID,68.0,VALID,1.842,
2018-04-11, 00:19:06,VALID,916.539,VALID,0.0,VALID,86.328,VALID,-0.01,VALID,22.101,VALID,69.0,VALID,1.898,
2018-04-11, 00:20:06,VALID,916.519,VALID,0.0,VALID,86.182,VALID,-0.003,VALID,22.139,VALID,60.0,VALID,1.514,
2018-04-11, 00:21:06,VALID,916.499,VALID,0.0,VALID,86.293,VALID,-0.013,VALID,22.105,VALID,61.0,VALID,1.627,
2018-04-11, 00:22:06,VALID,916.492,VALID,0.0,VALID,86.309,VALID,-0.005,VALID,22.099,VALID,58.0,VALID,1.727,
2018-04-11, 00:23:06,VALID,916.471,VALID,0.0,VALID,86.202,VALID,-0.009,VALID,22.119,VALID,60.0,VALID,1.554,
2018-04-11, 00:24:06,VALID,916.442,VALID,0.0,VALID,85.992,VALID,-0.001,VALID,22.153,VALID,57.0,VALID,1.977,
2018-04-11, 00:25:06,VALID,916.408,VALID,0.0,VALID,85.802,VALID,-0.022,VALID,22.182,VALID,47.0,VALID,0.862,
2018-04-11, 00:26:06,VALID,916.386,VALID,0.0,VALID,86.126,VALID,-0.026,VALID,22.117,VALID,54.0,VALID,0.995,
2018-04-11, 00:27:06,VALID,916.343,VALID,0.0,VALID,86.257,VALID,-0.005,VALID,22.097,VALID,52.0,VALID,1.613,
2018-04-11, 00:28:06,VALID,916.342,VALID,0.0,VALID,86.139,VALID,-0.003,VALID,22.101,VALID,48.0,VALID,1.326,
2018-04-11, 00:29:06,VALID,916.333,VALID,0.0,VALID,86.189,VALID,-0.022,VALID,22.073,VALID,45.0,VALID,1.144,
2018-04-11, 00:30:06,VALID,916.317,VALID,0.0,VALID,86.64,VALID,-0.023,VALID,21.974,VALID,52.0,VALID,1.115,
2018-04-11, 00:31:06,VALID,916.288,VALID,0.0,VALID,86.802,VALID,-0.023,VALID,21.97,VALID,45.0,VALID,0.907,
2018-04-11, 00:32:06,VALID,916.272,VALID,0.0,VALID,86.422,VALID,0.01,VALID,22.031,VALID,49.0,VALID,1.186,
2018-04-11, 00:33:06,VALID,916.256,VALID,0.0,VALID,86.231,VALID,0.013,VALID,22.059,VALID,40.0,VALID,1.304,
2018-04-11, 00:34:06,VALID,916.243,VALID,0.0,VALID,86.152,VALID,0.0,VALID,22.088,VALID,48.0,VALID,0.758,
2018-04-11, 00:35:06,VALID,916.256,VALID,0.0,VALID,86.345,VALID,0.011,VALID,22.057,VALID,51.0,VALID,1.16,
2018-04-11, 00:36:06,VALID,916.26,VALID,0.0,VALID,86.668,VALID,0.005,VALID,22.003,VALID,55.0,VALID,1.373,
2018-04-11, 00:37:06,VALID,916.25,VALID,0.0,VALID,86.663,VALID,-0.002,VALID,22.0,VALID,73.0,VALID,1.065,
2018-04-11, 00:38:06,VALID,916.236,VALID,0.0,VALID,86.677,VALID,-0.013,VALID,21.996,VALID,101.0,VALID,0.677,
2018-04-11, 00:39:06,VALID,916.22,VALID,0.0,VALID,86.861,VALID,0.007,VALID,21.915,VALID,110.0,VALID,1.052,
2018-04-11, 00:40:06,VALID,916.217,VALID,0.0,VALID,87.219,VALID,-0.008,VALID,21.856,VALID,89.0,VALID,1.371,
2018-04-11, 00:41:06,VALID,916.218,VALID,0.0,VALID,87.227,VALID,-0.001,VALID,21.804,VALID,80.0,VALID,1.193,
2018-04-11, 00:42:06,VALID,916.219,VALID,0.0,VALID,87.853,VALID,0.011,VALID,21.728,VALID,67.0,VALID,0.953,
2018-04-11, 00:43:06,VALID,916.224,VALID,0.0,VALID,88.407,VALID,0.006,VALID,21.664,VALID,67.0,VALID,1.331,
2018-04-11, 00:44:06,VALID,916.208,VALID,0.0,VALID,88.622,VALID,0.02,VALID,21.642,VALID,72.0,VALID,1.028,
2018-04-11, 00:45:06,VALID,916.188,VALID,0.0,VALID,88.647,VALID,-0.012,VALID,21.612,VALID,78.0,VALID,0.996,
2018-04-11, 00:46:06,VALID,916.167,VALID,0.0,VALID,88.809,VALID,0.011,VALID,21.595,VALID,84.0,VALID,0.738,
2018-04-11, 00:47:06,VALID,916.143,VALID,0.0,VALID,88.698,VALID,0.003,VALID,21.618,VALID,85.0,VALID,1.048,
2018-04-11, 00:48:06,VALID,916.13,VALID,0.0,VALID,88.028,VALID,0.001,VALID,21.742,VALID,85.0,VALID,1.548,
2018-04-11, 00:49:06,VALID,916.141,VALID,0.0,VALID,86.995,VALID,0.003,VALID,21.916,VALID,75.0,VALID,1.363,
2018-04-11, 00:50:06,VALID,916.156,VALID,0.0,VALID,86.681,VALID,-0.003,VALID,21.99,VALID,78.0,VALID,1.316,
2018-04-11, 00:51:06,VALID,916.16,VALID,0.0,VALID,86.786,VALID,-0.007,VALID,21.97,VALID,71.0,VALID,0.805,
2018-04-11, 00:52:06,VALID,916.155,VALID,0.0,VALID,87.124,VALID,-0.01,VALID,21.908,VALID,87.0,VALID,0.991,
2018-04-11, 00:53:06,VALID,916.129,VALID,0.0,VALID,87.258,VALID,0.009,VALID,21.871,VALID,98.0,VALID,0.905,
2018-04-11, 00:54:06,VALID,916.096,VALID,0.0,VALID,87.342,VALID,0.005,VALID,21.849,INVALID,360.0,VALID,0.171,
2018-04-11, 00:55:06,VALID,916.072,VALID,0.0,VALID,87.282,VALID,-0.002,VALID,21.858,VALID,122.0,VALID,0.46,
2018-04-11, 00:56:06,VALID,916.055,VALID,0.0,VALID,87.184,VALID,0.013,VALID,21.882,VALID,114.0,VALID,0.38,
2018-04-11, 00:57:06,VALID,916.042,VALID,0.0,VALID,87.15,VALID,0.01,VALID,21.866,INVALID,360.0,VALID,0.219,
2018-04-11, 00:58:06,VALID,916.065,VALID,0.0,VALID,87.776,VALID,0.003,VALID,21.817,VALID,124.0,VALID,0.185,
2018-04-11, 00:59:06,VALID,916.055,VALID,0.0,VALID,88.092,VALID,-0.014,VALID,21.753,VALID,133.0,VALID,0.182,
2018-04-11, 01:00:06,VALID,916.056,VALID,0.0,VALID,88.35,VALID,-0.001,VALID,21.707,INVALID,360.0,VALID,0.018,
2018-04-11, 01:01:06,VALID,916.046,VALID,0.0,VALID,88.55,VALID,0.006,VALID,21.684,INVALID,360.0,VALID,0.06,
2018-04-11, 01:02:06,VALID,916.041,VALID,0.0,VALID,88.606,VALID,-0.021,VALID,21.681,INVALID,360.0,VALID,0.037,
2018-04-11, 01:03:06,VALID,916.031,VALID,0.0,VALID,88.612,VALID,-0.004,VALID,21.681,INVALID,360.0,VALID,0.023,
2018-04-11, 01:04:06,VALID,916.025,VALID,0.0,VALID,88.554,VALID,-0.002,VALID,21.664,INVALID,360.0,VALID,0.096,
2018-04-11, 01:05:06,VALID,916.019,VALID,0.0,VALID,88.76,VALID,-0.001,VALID,21.602,INVALID,360.0,VALID,0.125,
2018-04-11, 01:06:06,VALID,916.022,VALID,0.0,VALID,89.094,VALID,-0.001,VALID,21.568,VALID,151.0,VALID,0.543,
2018-04-11, 01:07:06,VALID,916.022,VALID,0.0,VALID,89.115,VALID,-0.001,VALID,21.556,INVALID,360.0,VALID,0.151,
2018-04-11, 01:08:06,VALID,916.025,VALID,0.0,VALID,89.191,VALID,0.0,VALID,21.496,VALID,144.0,VALID,0.325,
2018-04-11, 01:09:06,VALID,916.02,VALID,0.0,VALID,89.378,VALID,-0.001,VALID,21.467,VALID,137.0,VALID,0.374,
2018-04-11, 01:10:06,VALID,916.013,VALID,0.0,VALID,89.478,VALID,-0.018,VALID,21.46,INVALID,360.0,VALID,0.114,
2018-04-11, 01:11:06,VALID,916.018,VALID,0.0,VALID,89.332,VALID,-0.006,VALID,21.456,VALID,124.0,VALID,0.351,
2018-04-11, 01:12:06,VALID,915.994,VALID,0.0,VALID,89.441,VALID,-0.012,VALID,21.425,VALID,124.0,VALID,0.457,
2018-04-11, 01:13:06,VALID,915.986,VALID,0.0,VALID,89.548,VALID,-0.017,VALID,21.489,INVALID,360.0,VALID,0.252,
2018-04-11, 01:14:06,VALID,915.987,VALID,0.0,VALID,89.167,VALID,-0.027,VALID,21.571,INVALID,360.0,VALID,0.0,
2018-04-11, 01:15:06,VALID,915.982,VALID,0.0,VALID,88.976,VALID,-0.005,VALID,21.613,INVALID,360.0,VALID,0.035,
2018-04-11, 01:16:06,VALID,915.983,VALID,0.0,VALID,88.796,VALID,0.001,VALID,21.658,INVALID,360.0,VALID,0.09,
2018-04-11, 01:17:06,VALID,915.957,VALID,0.0,VALID,88.593,VALID,-0.003,VALID,21.687,INVALID,360.0,VALID,0.085,
2018-04-11, 01:18:06,VALID,915.944,VALID,0.0,VALID,88.497,VALID,0.009,VALID,21.701,VALID,149.0,VALID,0.166,
2018-04-11, 01:19:06,VALID,915.932,VALID,0.0,VALID,88.355,VALID,0.003,VALID,21.722,INVALID,360.0,VALID,0.087,
2018-04-11, 01:20:06,VALID,915.915,VALID,0.0,VALID,88.249,VALID,-0.007,VALID,21.74,INVALID,360.0,VALID,0.004,
2018-04-11, 01:21:06,VALID,915.897,VALID,0.0,VALID,88.084,VALID,-0.002,VALID,21.748,INVALID,360.0,VALID,0.01,
2018-04-11, 01:22:06,VALID,915.873,VALID,0.0,VALID,88.148,VALID,-0.006,VALID,21.729,INVALID,360.0,VALID,0.0,
2018-04-11, 01:23:06,VALID,915.838,VALID,0.0,VALID,88.13,VALID,-0.005,VALID,21.746,VALID,163.0,VALID,0.354,
2018-04-11, 01:24:06,VALID,915.809,VALID,0.0,VALID,87.843,VALID,-0.006,VALID,21.802,INVALID,360.0,VALID,0.23,
2018-04-11, 01:25:06,VALID,915.795,VALID,0.0,VALID,87.503,VALID,-0.009,VALID,21.857,VALID,154.0,VALID,0.537,
2018-04-11, 01:26:06,VALID,915.791,VALID,0.0,VALID,87.151,VALID,0.001,VALID,21.911,VALID,156.0,VALID,0.164,
2018-04-11, 01:27:06,VALID,915.783,VALID,0.0,VALID,87.123,VALID,-0.008,VALID,21.915,INVALID,360.0,VALID,0.042,
2018-04-11, 01:28:06,VALID,915.783,VALID,0.0,VALID,86.994,VALID,-0.014,VALID,21.951,INVALID,360.0,VALID,0.0,
2018-04-11, 01:29:06,VALID,915.765,VALID,0.0,VALID,86.81,VALID,-0.011,VALID,21.975,INVALID,360.0,VALID,0.0,
2018-04-11, 01:30:06,VALID,915.761,VALID,0.0,VALID,86.595,VALID,-0.021,VALID,22.012,INVALID,360.0,VALID,0.228,
2018-04-11, 01:31:06,VALID,915.726,VALID,0.0,VALID,86.442,VALID,-0.006,VALID,22.035,VALID,213.0,VALID,0.404,
2018-04-11, 01:32:06,VALID,915.701,VALID,0.0,VALID,86.286,VALID,-0.0,VALID,22.029,VALID,161.0,VALID,0.939,
2018-04-11, 01:33:06,VALID,915.661,VALID,0.0,VALID,86.409,VALID,-0.002,VALID,21.946,VALID,192.0,VALID,0.505,
2018-04-11, 01:34:06,VALID,915.644,VALID,0.0,VALID,86.828,VALID,0.001,VALID,21.88,VALID,230.0,VALID,0.628,
2018-04-11, 01:35:06,VALID,915.634,VALID,0.0,VALID,87.096,VALID,-0.003,VALID,21.842,VALID,185.0,VALID,0.889,
2018-04-11, 01:36:06,VALID,915.602,VALID,0.0,VALID,87.529,VALID,-0.002,VALID,21.795,VALID,236.0,VALID,0.347,
2018-04-11, 01:37:06,VALID,915.608,VALID,0.0,VALID,87.99,VALID,-0.002,VALID,21.72,VALID,198.0,VALID,0.812,
2018-04-11, 01:38:06,VALID,915.596,VALID,0.0,VALID,88.855,VALID,-0.002,VALID,21.589,VALID,194.0,VALID,0.679,
2018-04-11, 01:39:06,VALID,915.578,VALID,0.0,VALID,89.465,VALID,0.012,VALID,21.483,VALID,165.0,VALID,0.778,
2018-04-11, 01:40:06,VALID,915.576,VALID,0.0,VALID,89.908,VALID,0.004,VALID,21.412,VALID,159.0,VALID,0.576,
2018-04-11, 01:41:06,VALID,915.559,VALID,0.0,VALID,90.28,VALID,0.003,VALID,21.354,VALID,153.0,VALID,0.384,
2018-04-11, 01:42:06,VALID,915.557,VALID,0.0,VALID,90.34,VALID,0.011,VALID,21.296,INVALID,360.0,VALID,0.021,
2018-04-11, 01:43:06,VALID,915.543,VALID,0.0,VALID,90.883,VALID,-0.001,VALID,21.234,VALID,159.0,VALID,0.909,
2018-04-11, 01:44:06,VALID,915.548,VALID,0.0,VALID,91.341,VALID,0.009,VALID,21.256,VALID,161.0,VALID,1.042,
2018-04-11, 01:45:06,VALID,915.528,VALID,0.0,VALID,91.274,VALID,0.001,VALID,21.304,VALID,157.0,VALID,1.055,
2018-04-11, 01:46:06,VALID,915.517,VALID,0.0,VALID,90.339,VALID,0.0,VALID,21.453,VALID,157.0,VALID,0.902,
2018-04-11, 01:47:06,VALID,915.501,VALID,0.0,VALID,89.631,VALID,0.013,VALID,21.637,VALID,162.0,VALID,0.796,
2018-04-11, 01:48:06,VALID,915.497,VALID,0.0,VALID,89.222,VALID,-0.006,VALID,21.678,VALID,161.0,VALID,0.332,
2018-04-11, 01:49:06,VALID,915.501,VALID,0.0,VALID,88.971,VALID,0.006,VALID,21.66,VALID,124.0,VALID,0.318,
2018-04-11, 01:50:06,VALID,915.477,VALID,0.0,VALID,89.267,VALID,-0.008,VALID,21.54,INVALID,360.0,VALID,0.055,
2018-04-11, 01:51:06,VALID,915.465,VALID,0.0,VALID,89.75,VALID,-0.013,VALID,21.454,VALID,146.0,VALID,0.169,
2018-04-11, 01:52:06,VALID,915.438,VALID,0.0,VALID,89.833,VALID,0.008,VALID,21.47,VALID,152.0,VALID,0.093,
2018-04-11, 01:53:06,VALID,915.423,VALID,0.0,VALID,89.718,VALID,-0.01,VALID,21.456,INVALID,360.0,VALID,0.065,
2018-04-11, 01:54:06,VALID,915.397,VALID,0.0,VALID,89.907,VALID,-0.008,VALID,21.391,INVALID,360.0,VALID,0.034,
2018-04-11, 01:55:06,VALID,915.382,VALID,0.0,VALID,90.27,VALID,0.013,VALID,21.305,INVALID,360.0,VALID,0.0,
2018-04-11, 01:56:06,VALID,915.386,VALID,0.0,VALID,90.564,VALID,0.004,VALID,21.222,INVALID,360.0,VALID,0.0,
2018-04-11, 01:57:06,VALID,915.377,VALID,0.0,VALID,90.902,VALID,-0.004,VALID,21.141,INVALID,360.0,VALID,0.0,
2018-04-11, 01:58:06,VALID,915.389,VALID,0.0,VALID,90.933,VALID,0.018,VALID,21.058,INVALID,360.0,VALID,0.0,
2018-04-11, 01:59:06,VALID,915.388,VALID,0.0,VALID,91.791,VALID,0.007,VALID,21.046,INVALID,360.0,VALID,0.0,
2018-04-11, 02:00:06,VALID,915.394,VALID,0.0,VALID,91.14,VALID,-0.01,VALID,20.994,INVALID,360.0,VALID,0.0,
2018-04-11, 02:01:06,VALID,915.407,VALID,0.0,VALID,91.87,VALID,0.007,VALID,20.961,INVALID,360.0,VALID,0.0,
2018-04-11, 02:02:06,VALID,915.407,VALID,0.0,VALID,92.171,VALID,0.014,VALID,20.953,INVALID,360.0,VALID,0.0,
2018-04-11, 02:03:06,VALID,915.393,VALID,0.0,VALID,92.175,VALID,0.01,VALID,20.962,INVALID,360.0,VALID,0.0,
2018-04-11, 02:04:06,VALID,915.37,VALID,0.0,VALID,92.261,VALID,0.01,VALID,21.004,INVALID,360.0,VALID,0.0,
2018-04-11, 02:05:06,VALID,915.349,VALID,0.0,VALID,92.271,VALID,0.01,VALID,21.055,VALID,176.0,VALID,0.0,
2018-04-11, 02:06:06,VALID,915.365,VALID,0.0,VALID,92.4,VALID,0.015,VALID,21.117,VALID,173.0,VALID,0.0,
2018-04-11, 02:07:06,VALID,915.364,VALID,0.0,VALID,91.979,VALID,0.0,VALID,21.14,VALID,160.0,VALID,0.0,
2018-04-11, 02:08:06,VALID,915.387,VALID,0.0,VALID,91.912,VALID,0.014,VALID,21.124,VALID,165.0,VALID,0.0,
2018-04-11, 02:09:06,VALID,915.374,VALID,0.0,VALID,91.31,VALID,0.016,VALID,21.065,VALID,165.0,VALID,0.0,
2018-04-11, 02:10:06,VALID,915.365,VALID,0.0,VALID,92.289,VALID,0.015,VALID,21.068,VALID,165.0,VALID,0.0,
2018-04-11, 02:11:06,VALID,915.362,VALID,0.0,VALID,92.315,VALID,0.017,VALID,21.067,VALID,165.0,VALID,0.0,
2018-04-11, 02:12:06,VALID,915.352,VALID,0.0,VALID,91.937,VALID,0.007,VALID,21.038,VALID,166.0,VALID,0.0,
2018-04-11, 02:13:06,VALID,915.354,VALID,0.0,VALID,92.225,VALID,0.014,VALID,21.023,VALID,166.0,VALID,0.0,
2018-04-11, 02:14:06,VALID,915.341,VALID,0.0,VALID,91.217,VALID,-0.009,VALID,20.953,VALID,166.0,VALID,0.0,
2018-04-11, 02:15:06,VALID,915.337,VALID,0.0,VALID,90.712,VALID,0.005,VALID,20.813,VALID,166.0,VALID,0.0,
2018-04-11, 02:16:06,VALID,915.33,VALID,0.0,VALID,92.421,VALID,-0.002,VALID,20.685,VALID,164.0,VALID,0.0,
2018-04-11, 02:17:06,VALID,915.305,VALID,0.0,VALID,93.213,VALID,-0.009,VALID,20.621,VALID,164.0,VALID,0.0,
2018-04-11, 02:18:06,VALID,915.293,VALID,0.0,VALID,93.477,VALID,0.004,VALID,20.605,VALID,164.0,VALID,0.0,
2018-04-11, 02:19:06,VALID,915.306,VALID,0.0,VALID,93.888,VALID,0.003,VALID,20.651,VALID,164.0,VALID,0.0,
2018-04-11, 02:20:06,VALID,915.312,VALID,0.0,VALID,93.745,VALID,0.002,VALID,20.69,VALID,163.0,VALID,0.0,
2018-04-11, 02:21:06,VALID,915.297,VALID,0.0,VALID,93.789,VALID,-0.01,VALID,20.743,VALID,157.0,VALID,0.0,
2018-04-11, 02:22:06,VALID,915.288,VALID,0.0,VALID,93.377,VALID,-0.012,VALID,20.761,VALID,164.0,VALID,0.0,
2018-04-11, 02:23:06,VALID,915.28,VALID,0.0,VALID,93.021,VALID,-0.009,VALID,20.734,VALID,165.0,VALID,0.0,
2018-04-11, 02:24:06,VALID,915.26,VALID,0.0,VALID,93.028,VALID,-0.005,VALID,20.698,VALID,183.0,VALID,0.015,
2018-04-11, 02:25:06,VALID,915.244,VALID,0.0,VALID,93.325,VALID,-0.006,VALID,20.708,VALID,173.0,VALID,0.418,
2018-04-11, 02:26:06,VALID,915.241,VALID,0.0,VALID,93.702,VALID,-0.0,VALID,20.758,VALID,163.0,VALID,0.148,
2018-04-11, 02:27:06,VALID,915.231,VALID,0.0,VALID,93.572,VALID,0.005,VALID,20.793,VALID,175.0,VALID,0.539,
2018-04-11, 02:28:06,VALID,915.216,VALID,0.0,VALID,93.534,VALID,0.002,VALID,20.832,VALID,174.0,VALID,0.746,
2018-04-11, 02:29:06,VALID,915.221,VALID,0.0,VALID,93.521,VALID,-0.004,VALID,20.864,VALID,173.0,VALID,0.718,
2018-04-11, 02:30:06,VALID,915.21,VALID,0.0,VALID,93.233,VALID,0.007,VALID,20.877,VALID,172.0,VALID,0.171,
2018-04-11, 02:31:06,VALID,915.203,VALID,0.0,VALID,93.024,VALID,-0.015,VALID,20.846,VALID,181.0,VALID,0.317,
2018-04-11, 02:32:06,VALID,915.177,VALID,0.0,VALID,93.23,VALID,0.018,VALID,20.813,VALID,175.0,VALID,0.412,
2018-04-11, 02:33:06,VALID,915.148,VALID,0.0,VALID,93.354,VALID,0.027,VALID,20.804,VALID,179.0,VALID,0.038,
2018-04-11, 02:34:06,VALID,915.121,VALID,0.0,VALID,93.374,VALID,0.015,VALID,20.811,VALID,188.0,VALID,0.0,
2018-04-11, 02:35:06,VALID,915.105,VALID,0.0,VALID,93.051,VALID,0.023,VALID,20.79,VALID,156.0,VALID,0.016,
2018-04-11, 02:36:06,VALID,915.081,VALID,0.0,VALID,91.517,VALID,0.03,VALID,20.639,VALID,150.0,VALID,0.0,
2018-04-11, 02:37:06,VALID,915.063,VALID,0.0,VALID,91.631,VALID,0.02,VALID,20.425,VALID,125.0,VALID,0.0,
2018-04-11, 02:38:06,VALID,915.04,VALID,0.0,VALID,92.879,VALID,0.027,VALID,20.239,VALID,69.0,VALID,0.0,
2018-04-11, 02:39:06,VALID,915.018,VALID,0.0,VALID,94.278,VALID,0.026,VALID,20.151,VALID,69.0,VALID,0.011,
2018-04-11, 02:40:06,VALID,914.992,VALID,0.0,VALID,94.316,VALID,0.029,VALID,20.045,VALID,69.0,VALID,0.13,
2018-04-11, 02:41:06,VALID,914.973,VALID,0.0,VALID,95.147,VALID,0.039,VALID,19.991,VALID,69.0,VALID,0.054,
2018-04-11, 02:42:06,VALID,914.93,VALID,0.0,VALID,94.94,VALID,0.027,VALID,19.887,VALID,69.0,VALID,0.0,
2018-04-11, 02:43:06,VALID,914.909,VALID,0.0,VALID,95.243,VALID,0.007,VALID,19.824,VALID,38.0,VALID,0.008,
2018-04-11, 02:44:06,VALID,914.882,VALID,0.0,VALID,95.807,VALID,0.008,VALID,19.805,VALID,10.0,VALID,0.739,
2018-04-11, 02:45:06,VALID,914.866,VALID,0.0,VALID,96.412,VALID,0.033,VALID,19.842,VALID,1.0,VALID,0.675,
2018-04-11, 02:46:06,VALID,914.865,VALID,0.0,VALID,96.721,VALID,0.033,VALID,19.902,VALID,356.0,VALID,0.963,
2018-04-11, 02:47:06,VALID,914.86,VALID,0.0,VALID,97.001,VALID,-0.001,VALID,19.988,VALID,355.0,VALID,0.795,
2018-04-11, 02:48:06,VALID,914.847,VALID,0.0,VALID,96.848,VALID,0.006,VALID,20.014,VALID,352.0,VALID,0.705,
2018-04-11, 02:49:06,VALID,914.827,VALID,0.0,VALID,96.703,VALID,-0.016,VALID,20.033,VALID,352.0,VALID,0.341,
2018-04-11, 02:50:06,VALID,914.811,VALID,0.0,VALID,96.728,VALID,-0.016,VALID,20.061,VALID,352.0,VALID,0.001,
2018-04-11, 02:51:06,VALID,914.798,VALID,0.0,VALID,96.556,VALID,0.004,VALID,20.052,VALID,352.0,VALID,0.0,
2018-04-11, 02:52:06,VALID,914.801,VALID,0.0,VALID,96.376,VALID,0.001,VALID,20.039,VALID,352.0,VALID,0.0,
2018-04-11, 02:53:06,VALID,914.807,VALID,0.0,VALID,96.424,VALID,-0.006,VALID,20.063,VALID,352.0,VALID,0.0,
2018-04-11, 02:54:06,VALID,914.823,VALID,0.0,VALID,96.535,VALID,-0.016,VALID,20.082,VALID,352.0,VALID,0.0,
2018-04-11, 02:55:06,VALID,914.852,VALID,0.0,VALID,96.194,VALID,-0.008,VALID,20.038,VALID,84.0,VALID,0.0,
2018-04-11, 02:56:06,VALID,914.865,VALID,0.0,VALID,95.983,VALID,-0.007,VALID,19.99,VALID,120.0,VALID,0.064,
2018-04-11, 02:57:07,VALID,914.88,VALID,0.0,VALID,96.021,VALID,0.012,VALID,19.938,VALID,119.0,VALID,0.764,
2018-04-11, 02:58:07,VALID,914.873,VALID,0.0,VALID,96.052,VALID,0.007,VALID,19.886,VALID,116.0,VALID,1.314,
2018-04-11, 02:59:07,VALID,914.859,VALID,0.0,VALID,96.162,VALID,-0.002,VALID,19.835,VALID,103.0,VALID,0.911,
2018-04-11, 03:00:07,VALID,914.841,VALID,0.0,VALID,96.362,VALID,0.011,VALID,19.795,VALID,88.0,VALID,0.728,
2018-04-11, 03:01:07,VALID,914.839,VALID,0.0,VALID,96.463,VALID,0.012,VALID,19.767,VALID,77.0,VALID,0.829,
2018-04-11, 03:02:07,VALID,914.841,VALID,0.0,VALID,96.711,VALID,0.004,VALID,19.77,VALID,80.0,VALID,0.75,
2018-04-11, 03:03:07,VALID,914.843,VALID,0.0,VALID,96.706,VALID,0.007,VALID,19.72,VALID,76.0,VALID,0.804,
2018-04-11, 03:04:07,VALID,914.855,VALID,0.0,VALID,96.793,VALID,-0.0,VALID,19.7,VALID,76.0,VALID,1.004,
2018-04-11, 03:05:07,VALID,914.837,VALID,0.0,VALID,97.538,VALID,0.016,VALID,19.884,VALID,78.0,VALID,0.911,
2018-04-11, 03:06:07,VALID,914.842,VALID,0.0,VALID,97.689,VALID,0.028,VALID,20.016,VALID,78.0,VALID,0.619,
2018-04-11, 03:07:07,VALID,914.858,VALID,0.0,VALID,97.375,VALID,0.003,VALID,20.014,VALID,90.0,VALID,0.589,
2018-04-11, 03:08:07,VALID,914.879,VALID,0.0,VALID,96.478,VALID,0.009,VALID,19.848,VALID,107.0,VALID,1.064,
2018-04-11, 03:09:07,VALID,914.891,VALID,0.0,VALID,96.416,VALID,0.009,VALID,19.796,VALID,111.0,VALID,1.241,
2018-04-11, 03:10:07,VALID,914.903,VALID,0.0,VALID,96.36,VALID,0.013,VALID,19.728,VALID,124.0,VALID,1.038,
2018-04-11, 03:11:07,VALID,914.907,VALID,0.0,VALID,96.484,VALID,0.017,VALID,19.716,VALID,134.0,VALID,0.902,
2018-04-11, 03:12:07,VALID,914.923,VALID,0.0,VALID,97.019,VALID,0.009,VALID,19.812,VALID,117.0,VALID,1.086,
2018-04-11, 03:13:07,VALID,914.934,VALID,0.0,VALID,96.485,VALID,-0.018,VALID,19.721,VALID,79.0,VALID,0.869,
2018-04-11, 03:14:07,VALID,914.936,VALID,0.0,VALID,96.2,VALID,-0.004,VALID,19.654,VALID,85.0,VALID,1.014,
2018-04-11, 03:15:07,VALID,914.953,VALID,0.0,VALID,96.907,VALID,-0.009,VALID,19.747,VALID,85.0,VALID,0.876,
2018-04-11, 03:16:07,VALID,914.971,VALID,0.0,VALID,97.241,VALID,0.009,VALID,19.849,VALID,96.0,VALID,0.951,
2018-04-11, 03:17:07,VALID,914.992,VALID,0.0,VALID,97.192,VALID,-0.001,VALID,19.872,VALID,103.0,VALID,1.014,
2018-04-11, 03:18:07,VALID,915.02,VALID,0.0,VALID,97.357,VALID,0.007,VALID,19.964,VALID,97.0,VALID,1.081,
2018-04-11, 03:19:07,VALID,915.042,VALID,0.0,VALID,97.404,VALID,-0.004,VALID,20.052,VALID,88.0,VALID,1.138,
2018-04-11, 03:20:07,VALID,915.067,VALID,0.0,VALID,97.22,VALID,-0.01,VALID,20.111,VALID,80.0,VALID,1.066,
2018-04-11, 03:21:07,VALID,915.072,VALID,0.0,VALID,96.662,VALID,0.007,VALID,20.102,VALID,75.0,VALID,0.926,
2018-04-11, 03:22:07,VALID,915.082,VALID,0.0,VALID,96.421,VALID,-0.017,VALID,20.126,VALID,75.0,VALID,0.848,
2018-04-11, 03:23:07,VALID,915.096,VALID,0.0,VALID,96.402,VALID,-0.01,VALID,20.186,VALID,82.0,VALID,0.841,
2018-04-11, 03:24:07,VALID,915.092,VALID,0.0,VALID,96.392,VALID,0.001,VALID,20.279,VALID,90.0,VALID,0.855,
2018-04-11, 03:25:07,VALID,915.094,VALID,0.0,VALID,96.1,VALID,0.013,VALID,20.361,VALID,94.0,VALID,0.837,
2018-04-11, 03:26:07,VALID,915.086,VALID,0.0,VALID,95.638,VALID,0.008,VALID,20.407,VALID,96.0,VALID,0.868,
2018-04-11, 03:27:07,VALID,915.082,VALID,0.0,VALID,95.05,VALID,-0.005,VALID,20.39,VALID,101.0,VALID,0.711,
2018-04-11, 03:28:07,VALID,915.076,VALID,0.0,VALID,94.502,VALID,0.001,VALID,20.301,VALID,111.0,VALID,0.579,
2018-04-11, 03:29:07,VALID,915.075,VALID,0.0,VALID,94.126,VALID,0.015,VALID,20.155,VALID,137.0,VALID,0.788,
2018-04-11, 03:30:07,VALID,915.06,VALID,0.0,VALID,94.789,VALID,0.009,VALID,20.085,VALID,141.0,VALID,0.889,
2018-04-11, 03:31:07,VALID,915.076,VALID,0.0,VALID,95.422,VALID,-0.004,VALID,20.088,VALID,152.0,VALID,0.3,
2018-04-11, 03:32:07,VALID,915.049,VALID,0.0,VALID,95.68,VALID,-0.0,VALID,20.104,VALID,157.0,VALID,0.114,
2018-04-11, 03:33:07,VALID,915.048,VALID,0.0,VALID,95.987,VALID,0.005,VALID,20.117,VALID,145.0,VALID,0.267,
2018-04-11, 03:34:07,VALID,915.055,VALID,0.0,VALID,96.027,VALID,0.025,VALID,20.098,VALID,141.0,VALID,0.248,
2018-04-11, 03:35:07,VALID,915.067,VALID,0.0,VALID,95.95,VALID,0.025,VALID,20.072,VALID,127.0,VALID,0.323,
2018-04-11, 03:36:07,VALID,915.073,VALID,0.0,VALID,96.149,VALID,0.01,VALID,20.093,VALID,129.0,VALID,0.05,
2018-04-11, 03:37:07,VALID,915.07,VALID,0.0,VALID,96.297,VALID,0.007,VALID,20.147,VALID,146.0,VALID,0.043,
2018-04-11, 03:38:07,VALID,915.057,VALID,0.0,VALID,96.371,VALID,0.0,VALID,20.205,VALID,150.0,VALID,0.0,
2018-04-11, 03:39:07,VALID,915.066,VALID,0.0,VALID,96.405,VALID,-0.002,VALID,20.247,VALID,131.0,VALID,0.0,